TimeEST,TemperatureF,Dew PointF,Humidity,Sea Level PressureIn,VisibilityMPH,Wind Direction,Wind SpeedMPH,Gust SpeedMPH,PrecipitationIn,Events,Conditions,WindDirDegrees,DateUTC
12:15 AM,35.6,26.6,70,30.48,10.0,SE,6.9,-,N/A,,Clear,130,2012-11-18 05:15:00
12:35 AM,35.6,26.2,69,30.48,10.0,SE,4.6,-,N/A,,Clear,130,2012-11-18 05:35:00
12:55 AM,35.6,26.1,68,30.48,10.0,SE,3.5,-,N/A,,Clear,130,2012-11-18 05:55:00
1:15 AM,37.8,27.3,66,30.48,10.0,SE,5.8,-,N/A,,Clear,130,2012-11-18 06:15:00
1:35 AM,38.3,27.5,65,30.48,10.0,SE,4.6,-,N/A,,Clear,140,2012-11-18 06:35:00
1:55 AM,38.3,27.3,65,30.48,10.0,SE,4.6,-,N/A,,Clear,130,2012-11-18 06:55:00
2:15 AM,38.3,27.7,66,30.48,10.0,SE,5.8,-,N/A,,Clear,140,2012-11-18 07:15:00
2:35 AM,38.3,27.9,66,30.48,10.0,SE,4.6,-,N/A,,Clear,140,2012-11-18 07:35:00
2:55 AM,36.3,27.0,69,30.47,10.0,SE,5.8,-,N/A,,Clear,130,2012-11-18 07:55:00
3:15 AM,38.3,28.4,68,30.47,10.0,SE,6.9,-,N/A,,Clear,140,2012-11-18 08:15:00
3:35 AM,38.3,29.1,70,30.47,10.0,SSE,8.1,-,N/A,,Clear,150,2012-11-18 08:35:00
3:55 AM,38.3,29.1,70,30.46,10.0,SSE,5.8,-,N/A,,Clear,150,2012-11-18 08:55:00
4:15 AM,38.3,28.9,69,30.46,10.0,SE,4.6,-,N/A,,Clear,140,2012-11-18 09:15:00
4:35 AM,38.3,29.3,70,30.45,10.0,SSE,5.8,-,N/A,,Clear,150,2012-11-18 09:35:00
5:15 AM,38.5,29.3,70,30.46,10.0,SSE,5.8,-,N/A,,Clear,150,2012-11-18 10:15:00
5:35 AM,38.5,29.3,70,30.46,10.0,SSE,5.8,-,N/A,,Clear,160,2012-11-18 10:35:00
5:55 AM,38.5,29.1,69,30.45,10.0,SSE,5.8,-,N/A,,Clear,150,2012-11-18 10:55:00
6:15 AM,38.3,28.9,69,30.45,10.0,SSE,4.6,-,N/A,,Clear,150,2012-11-18 11:15:00
6:35 AM,38.3,29.3,70,30.45,10.0,SSE,4.6,-,N/A,,Clear,150,2012-11-18 11:35:00
6:55 AM,38.3,29.3,70,30.45,10.0,SE,4.6,-,N/A,,Clear,140,2012-11-18 11:55:00
7:15 AM,35.6,28.2,75,30.45,7.0,SE,3.5,-,N/A,,Clear,130,2012-11-18 12:15:00
7:35 AM,35.6,28.0,74,30.45,7.0,SE,4.6,-,N/A,,Clear,140,2012-11-18 12:35:00
7:55 AM,38.3,29.7,71,30.45,7.0,SE,5.8,-,N/A,,Clear,140,2012-11-18 12:55:00
8:14 AM,38.3,29.3,70,30.45,7.0,SSE,5.8,-,N/A,,Clear,150,2012-11-18 13:14:00
8:35 AM,38.3,28.9,69,30.45,7.0,SE,5.8,-,N/A,,Clear,140,2012-11-18 13:35:00
8:55 AM,38.3,28.4,68,30.46,7.0,SSE,5.8,-,N/A,,Clear,150,2012-11-18 13:55:00
9:15 AM,39.4,28.6,65,30.45,10.0,SSE,6.9,-,N/A,,Clear,150,2012-11-18 14:15:00
9:35 AM,41.5,28.8,60,30.45,10.0,SSE,8.1,-,N/A,,Clear,150,2012-11-18 14:35:00
9:55 AM,43.0,28.8,57,30.45,10.0,SSE,8.1,-,N/A,,Clear,160,2012-11-18 14:55:00
10:15 AM,45.5,30.4,56,30.45,10.0,SSE,5.8,-,N/A,,Clear,160,2012-11-18 15:15:00
10:35 AM,48.2,30.9,51,30.45,10.0,SSE,6.9,-,N/A,,Clear,160,2012-11-18 15:35:00
10:55 AM,48.2,29.7,49,30.45,10.0,SSE,8.1,-,N/A,,Clear,160,2012-11-18 15:55:00
11:15 AM,48.4,28.4,46,30.45,10.0,SSE,6.9,-,N/A,,Clear,150,2012-11-18 16:15:00
11:35 AM,49.3,28.9,45,30.45,10.0,SE,5.8,-,N/A,,Clear,140,2012-11-18 16:35:00
11:55 AM,50.5,28.6,43,30.44,10.0,South,10.4,-,N/A,,Clear,190,2012-11-18 16:55:00
12:15 PM,53.1,29.5,40,30.42,10.0,South,8.1,-,N/A,,Clear,170,2012-11-18 17:15:00
12:35 PM,53.1,29.7,41,30.41,10.0,SSE,8.1,-,N/A,,Clear,150,2012-11-18 17:35:00
12:54 PM,53.1,25.7,35,30.41,10.0,South,11.5,16.1,N/A,,Clear,170,2012-11-18 17:54:00
1:15 PM,53.1,25.2,34,30.40,10.0,South,11.5,-,N/A,,Clear,180,2012-11-18 18:15:00
1:35 PM,53.1,25.0,34,30.40,10.0,South,9.2,-,N/A,,Clear,180,2012-11-18 18:35:00
1:55 PM,53.8,27.9,37,30.39,10.0,WSW,6.9,-,N/A,,Clear,250,2012-11-18 18:55:00
2:15 PM,53.1,34.5,49,30.39,10.0,WSW,5.8,-,N/A,,Clear,250,2012-11-18 19:15:00
2:35 PM,53.1,33.3,47,30.38,10.0,WSW,9.2,-,N/A,,Clear,250,2012-11-18 19:35:00
3:15 PM,53.1,32.0,45,30.38,10.0,SW,6.9,-,N/A,,Clear,230,2012-11-18 20:15:00
3:35 PM,53.1,32.4,45,30.38,10.0,WSW,6.9,-,N/A,,Clear,240,2012-11-18 20:35:00
3:55 PM,50.5,30.6,46,30.37,10.0,SW,5.8,-,N/A,,Clear,220,2012-11-18 20:55:00
4:15 PM,50.5,30.9,47,30.37,10.0,SSW,4.6,-,N/A,,Clear,200,2012-11-18 21:15:00
4:35 PM,49.3,28.9,45,30.37,10.0,SSW,4.6,-,N/A,,Clear,200,2012-11-18 21:35:00
4:55 PM,48.2,30.0,49,30.38,10.0,SW,3.5,-,N/A,,Clear,220,2012-11-18 21:55:00
5:15 PM,45.5,29.1,53,30.38,10.0,SW,3.5,-,N/A,,Clear,220,2012-11-18 22:15:00
5:35 PM,44.4,29.3,55,30.38,10.0,Calm,Calm,-,N/A,,Clear,0,2012-11-18 22:35:00
5:55 PM,38.7,28.8,68,30.38,10.0,Calm,Calm,-,N/A,,Clear,0,2012-11-18 22:55:00
6:15 PM,38.3,29.8,72,30.38,10.0,Calm,Calm,-,N/A,,Clear,0,2012-11-18 23:15:00
6:35 PM,36.5,29.1,75,30.38,10.0,Calm,Calm,-,N/A,,Clear,0,2012-11-18 23:35:00
6:55 PM,35.8,29.5,78,30.38,10.0,Calm,Calm,-,N/A,,Clear,0,2012-11-18 23:55:00
7:15 PM,35.6,30.0,80,30.38,10.0,Calm,Calm,-,N/A,,Clear,0,2012-11-19 00:15:00
7:34 PM,33.6,28.4,81,30.39,10.0,Calm,Calm,-,N/A,,Clear,0,2012-11-19 00:34:00
7:55 PM,34.9,29.5,81,30.38,10.0,Calm,Calm,-,N/A,,Clear,0,2012-11-19 00:55:00
8:15 PM,32.2,27.9,84,30.38,10.0,Calm,Calm,-,N/A,,Clear,0,2012-11-19 01:15:00
8:35 PM,33.1,29.1,85,30.37,10.0,Calm,Calm,-,N/A,,Clear,0,2012-11-19 01:35:00
8:55 PM,34.3,30.0,84,30.37,10.0,Calm,Calm,-,N/A,,Clear,0,2012-11-19 01:55:00
9:15 PM,36.5,28.2,72,30.37,10.0,Calm,Calm,-,N/A,,Clear,0,2012-11-19 02:15:00
9:35 PM,38.1,30.2,73,30.37,10.0,ESE,4.6,-,N/A,,Clear,120,2012-11-19 02:35:00
9:55 PM,38.3,30.2,73,30.37,10.0,ESE,4.6,-,N/A,,Clear,120,2012-11-19 02:55:00
10:15 PM,38.3,30.9,75,30.36,10.0,ESE,4.6,-,N/A,,Clear,110,2012-11-19 03:15:00
10:35 PM,38.3,31.3,76,30.36,7.0,ESE,3.5,-,N/A,,Clear,120,2012-11-19 03:35:00
10:55 PM,38.3,31.5,76,30.36,7.0,Calm,Calm,-,N/A,,Clear,0,2012-11-19 03:55:00
11:15 PM,38.3,31.1,75,30.36,7.0,ESE,3.5,-,N/A,,Clear,110,2012-11-19 04:15:00
11:35 PM,35.6,29.8,80,30.35,7.0,ESE,4.6,-,N/A,,Clear,120,2012-11-19 04:35:00
11:55 PM,35.6,30.0,80,30.35,7.0,ESE,4.6,-,N/A,,Clear,110,2012-11-19 04:55:00